Centralia, IL

5:31 PM CST on February 08, 2016 (GMT -0600)
Centralia Municipal

Weather History for KENL - September, 2013

Change the Weather History Date:

Saturday, September 28, 2013

  Actual Average (KSLO) Record (KSLO)
Temperature  
Mean Temperature 70 °F -  
Max Temperature 87 °F 77 °F 91 °F (1986)
Min Temperature 55 °F 50 °F 37 °F (1989)
Cooling Degree Days 6    
Growing Degree Days 20 (Base 50)    
Moisture  
Dew Point 58 °F    
Average Humidity 62    
Maximum Humidity 91    
Minimum Humidity 35    
Precipitation  
Precipitation 0.00 in - - ()
Sea Level Pressure  
Sea Level Pressure 30.04 in    
Wind  
Wind Speed 6 mph (SSE)    
Max Wind Speed 17 mph    
Max Gust Speed 26 mph    
Visibility 10 miles    
Events      
Averages and records for this station are not official NWS values.
T = Trace of Precipitation, MM = Missing Value Source: NWS Daily Summary

Daily Weather History Graph

Daily Weather History Graph

Search for Another Location

Airport or City:

Trip Planner

Search our weather history database for the weather conditions in past years. The results will help you decide how hot, cold, wet, or windy it might be!

Date:

Astronomy

Sep. 28, 2013 Rise Set
Actual Time 6:49 AM CDT 6:43 PM CDT
Civil Twilight 6:23 AM CDT 7:09 PM CDT
Nautical Twilight 5:52 AM CDT 7:40 PM CDT
Astronomical Twilight 5:21 AM CDT 8:11 PM CDT
Moon 12:40 AM CDT (9/28) 2:58 PM CDT (9/28)
Length of Visible Light 12h 46m
Length of Day
11h 53m
Waning Crescent, 36% of the Moon is Illuminated
Sep 28
Waning Crescent
Oct 4
New
Oct 11
First Quarter
Oct 18
Full
Oct 26
Last Quarter

Hourly Weather History & Observations

Time (CDT) Temp. Heat Index Dew Point Humidity Pressure Visibility Wind Dir Wind Speed Gust Speed Precip Events Conditions
12:15 AM 57.4 °F - 53.4 °F 87% 30.07 in 10.0 mi Calm Calm - N/A   Unknown
12:35 AM 56.3 °F - 53.1 °F 89% 30.06 in 10.0 mi Calm Calm - N/A   Unknown
12:55 AM 57.2 °F - 53.8 °F 88% 30.06 in 10.0 mi ESE 3.5 mph - N/A   Unknown
1:15 AM 57.9 °F - 54.5 °F 88% 30.05 in 10.0 mi ESE 3.5 mph - N/A   Unknown
1:35 AM 57.2 °F - 53.6 °F 88% 30.05 in 10.0 mi Calm Calm - N/A   Unknown
1:55 AM 56.7 °F - 53.4 °F 89% 30.06 in 10.0 mi Calm Calm - N/A   Unknown
2:15 AM 55.6 °F - 52.5 °F 89% 30.06 in 10.0 mi Calm Calm - N/A   Unknown
2:35 AM 57.2 °F - 54.5 °F 91% 30.05 in 10.0 mi Calm Calm - N/A   Unknown
2:55 AM 55.9 °F - 53.2 °F 91% 30.05 in 10.0 mi Calm Calm - N/A   Unknown
3:15 AM 56.5 °F - 53.8 °F 91% 30.05 in 10.0 mi Calm Calm - N/A   Unknown
3:35 AM 56.8 °F - 54.3 °F 91% 30.05 in 10.0 mi Calm Calm - N/A   Unknown
3:55 AM 59.4 °F - 55.8 °F 88% 30.05 in 10.0 mi Calm Calm - N/A   Unknown
4:15 AM 61.7 °F - 56.8 °F 84% 30.05 in 10.0 mi Calm Calm - N/A   Unknown
4:35 AM 63.0 °F - 57.6 °F 82% 30.05 in 10.0 mi ESE 3.5 mph - N/A   Unknown
4:55 AM 63.7 °F - 58.5 °F 83% 30.05 in 10.0 mi SE 4.6 mph - N/A   Unknown
5:15 AM 64.6 °F - 58.5 °F 80% 30.05 in 10.0 mi SE 4.6 mph - N/A   Unknown
5:35 AM 64.4 °F - 58.3 °F 80% 30.06 in 10.0 mi SE 4.6 mph - N/A   Unknown
5:55 AM 64.2 °F - 58.3 °F 81% 30.06 in 10.0 mi SE 4.6 mph - N/A   Unknown
6:15 AM 64.2 °F - 58.3 °F 81% 30.07 in 10.0 mi SSE 5.8 mph - N/A   Unknown
6:35 AM 64.4 °F - 58.5 °F 81% 30.07 in 10.0 mi SSE 5.8 mph - N/A   Unknown
6:55 AM 65.5 °F - 59.2 °F 80% 30.08 in 10.0 mi SSE 8.1 mph - N/A   Unknown
7:15 AM 66.4 °F - 59.4 °F 78% 30.08 in 10.0 mi SSE 8.1 mph - N/A   Unknown
7:35 AM 66.9 °F - 59.9 °F 78% 30.08 in 10.0 mi SSE 6.9 mph - N/A   Unknown
7:55 AM 67.5 °F - 60.1 °F 77% 30.09 in 10.0 mi SSE 5.8 mph - N/A   Unknown
8:15 AM 68.7 °F - 60.8 °F 76% 30.09 in 10.0 mi SSE 8.1 mph - N/A   Unknown
8:35 AM 69.8 °F - 61.2 °F 74% 30.10 in 10.0 mi SSE 9.2 mph - N/A   Unknown
8:55 AM 70.9 °F - 61.9 °F 73% 30.10 in 10.0 mi SSE 9.2 mph - N/A   Unknown
9:15 AM 72.9 °F - 62.2 °F 69% 30.10 in 10.0 mi South 10.4 mph - N/A   Unknown
9:35 AM 74.1 °F - 63.0 °F 68% 30.10 in 10.0 mi South 9.2 mph - N/A   Unknown
9:55 AM 75.6 °F - 63.0 °F 65% 30.10 in 10.0 mi South 11.5 mph 17.3 mph N/A   Unknown
10:15 AM 76.8 °F - 63.3 °F 63% 30.10 in 10.0 mi South 9.2 mph - N/A   Unknown
10:35 AM 78.6 °F - 63.5 °F 60% 30.10 in 10.0 mi South 9.2 mph - N/A   Unknown
10:55 AM 81.7 °F 82.9 °F 63.0 °F 53% 30.09 in 10.0 mi South 10.4 mph - N/A   Unknown
11:15 AM 82.9 °F 84.2 °F 63.5 °F 52% 30.08 in 10.0 mi South 13.8 mph - N/A   Unknown
11:35 AM 84.4 °F 84.8 °F 61.7 °F 46% 30.08 in 10.0 mi South 12.7 mph 19.6 mph N/A   Unknown
11:55 AM 83.7 °F 83.9 °F 61.2 °F 46% 30.08 in 10.0 mi South 15.0 mph - N/A   Unknown
12:15 PM 84.7 °F 84.8 °F 60.6 °F 44% 30.08 in 10.0 mi South 17.3 mph 21.9 mph N/A   Unknown
12:35 PM 85.3 °F 84.8 °F 59.4 °F 41% 30.07 in 10.0 mi South 17.3 mph 24.2 mph N/A   Unknown
12:55 PM 85.6 °F 84.8 °F 57.9 °F 39% 30.05 in 10.0 mi SSE 17.3 mph 24.2 mph N/A   Unknown
1:15 PM 85.5 °F 84.8 °F 58.5 °F 40% 30.05 in 10.0 mi South 17.3 mph 24.2 mph N/A   Unknown
1:35 PM 85.3 °F 83.9 °F 55.8 °F 36% 30.04 in 10.0 mi South 13.8 mph 26.5 mph N/A   Unknown
1:55 PM 85.5 °F 84.3 °F 56.7 °F 37% 30.03 in 10.0 mi South 16.1 mph 21.9 mph N/A   Unknown
2:15 PM 84.7 °F 83.7 °F 56.8 °F 38% 30.03 in 10.0 mi South 16.1 mph 20.7 mph N/A   Unknown
2:35 PM 85.3 °F 84.4 °F 57.4 °F 39% 30.03 in 10.0 mi South 15.0 mph 19.6 mph N/A   Unknown
2:55 PM 86.5 °F 85.4 °F 57.0 °F 37% 30.02 in 10.0 mi South 15.0 mph 18.4 mph N/A   Unknown
3:15 PM 85.8 °F 84.5 °F 56.1 °F 36% 30.01 in 10.0 mi SSE 16.1 mph 23.0 mph N/A   Unknown
3:35 PM 86.4 °F 84.9 °F 55.8 °F 35% 30.01 in 10.0 mi South 16.1 mph - N/A   Unknown
3:55 PM 86.0 °F 84.7 °F 56.3 °F 36% 30.00 in 10.0 mi SSE 11.5 mph 18.4 mph N/A   Unknown
4:15 PM 85.3 °F 84.1 °F 55.9 °F 37% 30.00 in 10.0 mi South 12.7 mph - N/A   Unknown
4:35 PM 83.8 °F 83.0 °F 56.3 °F 39% 30.00 in 10.0 mi South 10.4 mph - N/A   Unknown
4:55 PM 83.5 °F 82.8 °F 56.8 °F 40% 30.00 in 10.0 mi South 10.4 mph - N/A   Unknown
5:15 PM 82.9 °F 82.4 °F 56.8 °F 41% 30.00 in 10.0 mi SSE 13.8 mph 17.3 mph N/A   Unknown
5:35 PM 82.4 °F 82.0 °F 57.2 °F 42% 30.00 in 10.0 mi South 11.5 mph 17.3 mph N/A   Unknown
5:55 PM 81.5 °F 81.5 °F 57.4 °F 44% 30.00 in 10.0 mi SSE 10.4 mph - N/A   Unknown
6:15 PM 79.7 °F - 58.1 °F 47% 30.00 in 10.0 mi SSE 8.1 mph - N/A   Unknown
6:35 PM 78.1 °F - 58.5 °F 51% 30.00 in 10.0 mi SSE 8.1 mph - N/A   Unknown
6:55 PM 77.2 °F - 58.5 °F 52% 30.00 in 10.0 mi SSE 5.8 mph - N/A   Unknown
7:15 PM 76.6 °F - 58.8 °F 54% 30.00 in 10.0 mi SSE 6.9 mph - N/A   Unknown
7:35 PM 77.0 °F - 59.0 °F 54% 30.00 in 10.0 mi SSE 8.1 mph - N/A   Unknown
7:55 PM 77.0 °F - 59.0 °F 54% 30.00 in 10.0 mi SSE 10.4 mph - N/A   Unknown
8:15 PM 77.0 °F - 59.0 °F 54% 30.00 in 10.0 mi SSE 9.2 mph - N/A   Unknown
8:35 PM 77.2 °F - 58.5 °F 52% 30.00 in 10.0 mi SSE 9.2 mph - N/A   Unknown
8:55 PM 76.6 °F - 58.5 °F 53% 30.00 in 10.0 mi SSE 9.2 mph - N/A   Unknown
9:15 PM 76.1 °F - 59.5 °F 56% 30.00 in 10.0 mi SSE 11.5 mph - N/A   Unknown
9:35 PM 75.7 °F - 59.0 °F 56% 30.00 in 10.0 mi SSE 11.5 mph - N/A   Unknown
9:55 PM 75.7 °F - 59.0 °F 56% 30.00 in 10.0 mi South 10.4 mph - N/A   Unknown
10:15 PM 75.6 °F - 58.3 °F 55% 30.00 in 10.0 mi South 13.8 mph - N/A   Unknown
10:35 PM 75.6 °F - 58.1 °F 55% 30.00 in 10.0 mi South 11.5 mph 18.4 mph N/A   Unknown
10:55 PM 75.6 °F - 58.1 °F 55% 30.00 in 10.0 mi South 11.5 mph 19.6 mph N/A   Unknown
11:15 PM 75.2 °F - 58.3 °F 56% 30.00 in 10.0 mi South 11.5 mph 18.4 mph N/A   Unknown
11:35 PM 74.8 °F - 58.5 °F 57% 30.01 in 10.0 mi South 9.2 mph - N/A   Unknown
11:55 PM 74.5 °F - 58.6 °F 58% 30.01 in 10.0 mi South 11.5 mph - N/A   Unknown